GW0759 Weather Reports


time (UTC)temp
F
wind
direction
speed
knots
gust
knots
rain 1hr
in
rain 24hr
in
rain mn
in
humidity
%
barometer
mb
20260904171559 91 116 3.5 9.6 0.00 0.16 0.16 55 1013.4
20260904170054 89 236 0.9 9.6 0.00 0.16 0.16 63 1013.5
20260904164559 89 128 2.6 7.8 0.00 0.16 0.16 63 1013.7
20260904163056 88 205 4.3 8.7 0.00 0.16 0.16 65 1013.7
20260904161601 86 170 2.6 10.4 0.00 0.16 0.16 68 1013.7
20260904154601 84 182 3.5 11.3 0.00 0.16 0.16 75 1013.5
20260904153051 83 204 4.3 8.7 0.00 0.16 0.16 78 1013.6
20260904151559 83 136 3.5 9.6 0.00 0.16 0.16 79 1013.4
20260904150051 82 219 2.6 8.7 0.00 0.16 0.16 84 1013.3
20260904144553 81 109 2.6 7.8 0.00 0.16 0.16 88 1013.5
20260904143100 79 166 2.6 7.0 0.00 0.16 0.16 91 1013.5
20260904141605 78 142 1.7 4.3 0.00 0.16 0.16 92 1013.5
20260904140105 78 154 1.7 6.1 0.00 0.16 0.16 92 1013.5
20260904134615 77 153 1.7 6.1 0.00 0.16 0.16 93 1013.3
20260904133102 77 142 1.7 5.2 0.00 0.16 0.16 93 1013.1
20260904131602 77 160 0.9 6.1 0.00 0.16 0.16 93 1013.0
20260904130059 76 175 0.9 4.3 0.00 0.16 0.16 93 1012.7
20260904124605 76 125 0.9 3.5 0.00 0.16 0.16 93 1012.6
20260904123053 76 135 0.9 2.6 0.00 0.16 0.16 93 1012.5
20260904121558 76 140 1.7 4.3 0.00 0.16 0.16 93 1012.3
20260904120056 76 144 0.9 2.6 0.00 0.16 0.16 93 1012.1
20260904114551 76 126 0.9 3.5 0.00 0.16 0.16 93 1012.0
20260904113057 76 128 0.9 6.1 0.00 0.16 0.16 93 1012.0
20260904111552 76 126 1.7 3.5 0.00 0.16 0.16 93 1011.8
20260904110105 76 0 0.9 4.3 0.00 0.16 0.16 93 1011.9
20260904104550 76 126 0.9 2.6 0.00 0.16 0.16 93 1011.8
20260904103058 76 136 1.7 4.3 0.00 0.16 0.16 93 1011.8
20260904101555 76 141 1.7 5.2 0.00 0.16 0.16 93 1011.6
20260904100057 76 135 1.7 5.2 0.00 0.16 0.16 93 1011.6
20260904094554 76 131 2.6 7.0 0.00 0.16 0.16 93 1011.5
20260904093054 76 111 2.6 7.0 0.00 0.16 0.16 93 1011.3
20260904091555 76 146 1.7 5.2 0.00 0.16 0.16 93 1011.5
20260904090054 76 111 2.6 5.2 0.00 0.16 0.16 92 1011.6
20260904084556 76 143 1.7 5.2 0.00 0.16 0.16 92 1011.5
20260904083101 76 204 1.7 5.2 0.00 0.16 0.16 92 1011.5
20260904081554 76 138 0.9 5.2 0.01 0.16 0.16 92 1011.5
20260904080052 76 128 3.5 7.8 0.01 0.16 0.16 92 1011.5
20260904074610 76 124 1.7 4.3 0.03 0.16 0.16 92 1011.6
20260904073101 76 142 1.7 6.1 0.07 0.16 0.16 92 1011.7
20260904071550 76 146 2.6 7.0 0.07 0.15 0.15 91 1011.8
20260904070052 76 79 1.7 6.1 0.07 0.15 0.15 91 1011.9
20260904064549 76 173 2.6 7.0 0.13 0.13 0.13 90 1011.8
20260904063103 76 150 2.6 5.2 0.09 0.09 0.09 90 1012.0
20260904061603 76 166 2.6 4.3 0.08 0.08 0.08 89 1012.0
20260904060053 77 116 3.5 9.6 0.08 0.08 0.08 86 1011.8
20260904054600 78 142 2.6 7.0 0.00 0.00 0.00 83 1011.9
20260904053052 78 92 3.5 9.6 0.00 0.00 0.00 82 1011.9
20260904051602 78 136 5.2 9.6 0.00 0.00 0.00 80 1011.8
20260904050105 78 163 4.3 8.7 0.00 0.00 0.00 79 1011.8
20260904044556 78 122 4.3 10.4 0.00 0.00 0.00 78 1012.0
20260904043103 79 108 2.6 9.6 0.00 0.00 0.00 78 1011.9
20260904041600 79 99 5.2 12.2 0.00 0.00 0.00 77 1011.8
20260904040104 79 94 3.5 10.4 0.00 0.00 0.00 76 1011.8
20260904034559 79 143 2.6 9.6 0.00 0.00 0.00 75 1012.0
20260904033059 79 113 3.5 11.3 0.00 0.00 0.00 75 1011.8
20260904031603 79 169 2.6 9.6 0.00 0.00 0.00 74 1011.7
20260904030100 79 145 2.6 9.6 0.00 0.00 0.00 73 1011.7
20260904024603 80 125 3.5 8.7 0.00 0.00 0.00 72 1011.6
20260904023058 80 94 2.6 9.6 0.00 0.00 0.00 71 1011.4
20260904021558 80 127 3.5 9.6 0.00 0.00 0.00 70 1011.3
20260904020054 81 111 3.5 8.7 0.00 0.00 0.00 69 1010.9
20260904014606 81 88 2.6 10.4 0.00 0.00 0.00 68 1010.5
20260904013058 82 136 4.3 8.7 0.00 0.00 0.00 67 1010.2
20260904011553 82 137 3.5 10.4 0.00 0.00 0.00 65 1010.1
20260904010112 83 125 4.3 11.3 0.00 0.00 0.00 63 1010.1
20260904004555 84 136 5.2 10.4 0.00 0.00 0.00 60 1010.1
20260904003106 86 122 5.2 13.0 0.00 0.00 0.00 59 1010.2
20260904001559 88 144 4.3 13.9 0.00 0.00 0.00 57 1010.1
20260904000056 89 123 6.1 12.2 0.00 0.00 0.00 56 1010.1
20260903234557 90 156 7.0 13.9 0.00 0.00 0.00 56 1009.9
20260903233059 92 101 5.2 14.8 0.00 0.00 0.00 54 1009.6
20260903231550 93 196 6.1 13.9 0.00 0.00 0.00 54 1009.6
20260903224556 91 96 5.2 13.0 0.00 0.00 0.00 59 1009.4
20260903223051 92 117 6.1 12.2 0.00 0.00 0.00 58 1009.5
20260903221553 93 138 4.3 12.2 0.00 0.00 0.00 57 1009.5
20260903220057 94 115 5.2 11.3 0.00 0.00 0.00 54 1009.4
20260903214551 96 96 5.2 12.2 0.00 0.00 0.00 53 1009.4
20260903213055 94 88 4.3 10.4 0.00 0.00 0.00 56 1009.6
20260903211557 92 114 6.1 12.2 0.00 0.00 0.00 59 1009.7
20260903210107 92 125 6.1 12.2 0.00 0.00 0.00 60 1009.8
20260903204616 92 116 5.2 13.9 0.00 0.00 0.00 60 1009.9
20260903203051 91 195 4.3 11.3 0.00 0.00 0.00 61 1010.0
20260903201602 91 115 5.2 12.2 0.00 0.00 0.00 63 1010.2
20260903200103 92 88 6.1 13.0 0.00 0.00 0.00 61 1010.3
20260903194557 89 130 5.2 10.4 0.00 0.00 0.00 65 1010.4
20260903193054 89 187 6.1 13.9 0.00 0.00 0.00 65 1010.7
20260903191601 89 198 6.1 12.2 0.00 0.00 0.00 66 1011.1
20260903190053 88 137 6.1 12.2 0.00 0.00 0.00 68 1011.4
20260903184601 87 194 3.5 11.3 0.00 0.00 0.00 68 1011.7
20260903183100 88 119 5.2 10.4 0.00 0.00 0.00 67 1011.7
20260903181553 87 121 5.2 13.0 0.00 0.00 0.00 69 1011.9
20260903180053 88 127 5.2 13.9 0.00 0.00 0.00 67 1012.1
20260903174600 87 157 6.1 14.8 0.00 0.00 0.00 68 1012.2
20260903173100 87 105 5.2 13.0 0.00 0.00 0.00 68 1012.5